This is the latest recevied weather packets stored in our database for station/object SP4IM-13. If no packets are shown the sender has not sent any weather packets the latest 10 day(s).
| Time | Temp. | Humidity | Pressure | Rain* | Wind** | Luminosity | Snow |
|---|---|---|---|---|---|---|---|
| 1777292403 | 10.56° C | 44% | 1016 hPa | - | - | - | - |
| 1777291802 | 10.56° C | 44% | 1016 hPa | - | - | - | - |
| 1777289402 | 10.56° C | 44% | 1016 hPa | - | - | - | - |
| 1777288203 | 10.56° C | 43% | 1016 hPa | - | - | - | - |
| 1777279202 | 10° C | 46% | 1016 hPa | - | - | - | - |
| 1777278602 | 10° C | 47% | 1016 hPa | - | - | - | - |
| 1777275604 | 6.67° C | 43% | 1017 hPa | - | - | - | - |
| 1777275006 | 6.67° C | 43% | 1017 hPa | - | - | - | - |
| 1777273806 | 6.11° C | 43% | 1017 hPa | - | - | - | - |
| 1777273204 | 5.56° C | 43% | 1017 hPa | - | - | - | - |
| 1777272602 | 5.56° C | 44% | 1017 hPa | - | - | - | - |
| 1777272004 | 5° C | 45% | 1017 hPa | - | - | - | - |
| 1777271404 | 5° C | 47% | 1017 hPa | - | - | - | - |
| 1777270203 | 3.89° C | 51% | 1017 hPa | - | - | - | - |
| 1777269611 | 3.89° C | 51% | 1017 hPa | - | - | - | - |
| 1777269007 | 3.89° C | 53% | 1017 hPa | - | - | - | - |
| 1777268403 | 3.89° C | 55% | 1017 hPa | - | - | - | - |
| 1777267806 | 3.33° C | 57% | 1017 hPa | - | - | - | - |
| 1777267209 | 3.33° C | 58% | 1017 hPa | - | - | - | - |
| 1777266605 | 2.78° C | 59% | 1017 hPa | - | - | - | - |
| 1777266013 | 3.33° C | 60% | 1017 hPa | - | - | - | - |
| 1777265404 | 2.22° C | 60% | 1017 hPa | - | - | - | - |
| 1777264804 | 2.22° C | 61% | 1017 hPa | - | - | - | - |
| 1777264205 | 1.67° C | 61% | 1017 hPa | - | - | - | - |
| 1777263603 | 1.67° C | 62% | 1017 hPa | - | - | - | - |
* Rain since midnight (hover to see other rain measurements)
** Current wind speed in m/s (hover to see current wind gust speed)